When you browse on this site, cookies collect data to enhance your experience and personalize the content and advertising you see.
Visit our Privacy Policy to learn more. By continuing to use the site, you agree to this use of cookies and data.
  • In Portugal
  • List of Countries
  • For 7 days
  • Water Temperature
  • Satellite Maps
  • Weather Map
  • Weather Widgets
  • user-avatar
    Login

    Hourly Weather Trinidad

    Today, 20 January, Sunday

    Time Temperature Precipitation Wind Pressure Humidity
    00:00 +25°C° 0 mm 1 mps 746 mmHg 77%
    01:00 +25°C° 0 mm 1 mps 745 mmHg 78%
    02:00 +25°C° 0 mm 1 mps 746 mmHg 81%
    03:00 +25°C° 0.2 mm 1 mps 746 mmHg 83%
    04:00 +24°C° 0.2 mm 1 mps 746 mmHg 86%
    05:00 +24°C° 0.2 mm 1 mps 746 mmHg 89%
    06:00 +24°C° 0 mm 1 mps 746 mmHg 89%
    07:00 +24°C° 0 mm 1 mps 746 mmHg 89%
    08:00 +24°C° 0 mm 1 mps 747 mmHg 89%
    09:00 +25°C° 0 mm 1 mps 747 mmHg 87%
    10:00 +26°C° 0 mm 1 mps 747 mmHg 84%
    11:00 +27°C° 0 mm 1 mps 747 mmHg 82%
    12:00 +30°C° 0 mm 1 mps 746 mmHg 72%
    13:00 +32°C° 0 mm 1 mps 745 mmHg 61%
    14:00 +35°C° 0 mm 1 mps 745 mmHg 50%
    15:00 +35°C° 0 mm 1 mps 744 mmHg 54%
    16:00 +35°C° 0 mm 2 mps 743 mmHg 57%
    17:00 +34°C° 0 mm 2 mps 743 mmHg 60%
    18:00 +31°C° 0.3 mm 2 mps 743 mmHg 69%
    19:00 +29°C° 0.3 mm 1 mps 743 mmHg 78%
    20:00 +27°C° 0.3 mm 1 mps 743 mmHg 87%
    21:00 +27°C° 0 mm 1 mps 744 mmHg 88%
    22:00 +26°C° 0 mm 1 mps 744 mmHg 88%
    23:00 +26°C° 0 mm 1 mps 745 mmHg 89%

    Tomorrow, 21 January, Monday

    Time Temperature Precipitation Wind Pressure Humidity
    00:00 +23°C° 0 mm 0 mps 744 mmHg 89%
    01:00 +23°C° 0 mm 0 mps 744 mmHg 90%
    02:00 +23°C° 0 mm 0 mps 744 mmHg 90%
    03:00 +23°C° 0 mm 0 mps 744 mmHg 91%
    04:00 +23°C° 0 mm 0 mps 744 mmHg 91%
    05:00 +22°C° 0 mm 0 mps 744 mmHg 92%
    06:00 +24°C° 0 mm 0 mps 744 mmHg 89%
    07:00 +25°C° 0 mm 0 mps 745 mmHg 85%
    08:00 +26°C° 0 mm 0 mps 745 mmHg 81%
    09:00 +28°C° 0.1 mm 0 mps 745 mmHg 73%
    10:00 +30°C° 0.1 mm 0 mps 745 mmHg 66%
    11:00 +35°C° 0.1 mm 1 mps 745 mmHg 58%
    12:00 +34°C° 0.9 mm 1 mps 745 mmHg 60%
    13:00 +35°C° 0.9 mm 2 mps 744 mmHg 61%
    14:00 +35°C° 0.9 mm 2 mps 743 mmHg 63%
    15:00 +35°C° 0 mm 2 mps 743 mmHg 61%
    16:00 +35°C° 0 mm 2 mps 742 mmHg 59%
    17:00 +34°C° 0 mm 1 mps 742 mmHg 57%
    18:00 +32°C° 0.1 mm 2 mps 742 mmHg 66%
    19:00 +30°C° 0.1 mm 2 mps 742 mmHg 75%
    20:00 +28°C° 0.1 mm 2 mps 743 mmHg 83%
    21:00 +28°C° 0 mm 1 mps 744 mmHg 85%
    22:00 +27°C° 0 mm 1 mps 744 mmHg 86%
    23:00 +27°C° 0 mm 1 mps 745 mmHg 87%

    Day after tomorrow, 22 January, Tuesday

    Time Temperature Precipitation Wind Pressure Humidity
    00:00 +26°C° 0 mm 1 mps 744 mmHg 88%
    01:00 +26°C° 0 mm 1 mps 744 mmHg 89%
    02:00 +26°C° 0 mm 1 mps 744 mmHg 90%
    03:00 +24°C° 0 mm 0 mps 744 mmHg 90%
    04:00 +24°C° 0 mm 0 mps 744 mmHg 90%
    05:00 +24°C° 0 mm 0 mps 744 mmHg 90%
    06:00 +25°C° 0 mm 0 mps 744 mmHg 86%
    07:00 +26°C° 0 mm 0 mps 745 mmHg 82%
    08:00 +27°C° 0 mm 0 mps 745 mmHg 78%
    09:00 +29°C° 1.6 mm 0 mps 745 mmHg 72%
    10:00 +32°C° 1.6 mm 1 mps 746 mmHg 66%
    11:00 +34°C° 1.6 mm 1 mps 746 mmHg 61%
    12:00 +34°C° 0.1 mm 1 mps 745 mmHg 58%
    13:00 +36°C° 0.1 mm 2 mps 744 mmHg 56%
    14:00 +36°C° 0.1 mm 3 mps 743 mmHg 53%
    15:00 +36°C° 0 mm 2 mps 743 mmHg 55%
    16:00 +35°C° 0 mm 2 mps 742 mmHg 58%
    17:00 +35°C° 0 mm 2 mps 741 mmHg 60%
    18:00 +32°C° 0 mm 2 mps 742 mmHg 66%
    19:00 +30°C° 0 mm 2 mps 742 mmHg 73%
    20:00 +29°C° 0 mm 1 mps 743 mmHg 80%
    21:00 +28°C° 0 mm 1 mps 743 mmHg 82%
    22:00 +28°C° 0 mm 1 mps 744 mmHg 85%
    23:00 +27°C° 0 mm 1 mps 745 mmHg 87%

    23 January, Wednesday

    Time Temperature Precipitation Wind Pressure Humidity
    00:00 +27°C° 0 mm 1 mps 745 mmHg 88%
    01:00 +27°C° 0 mm 2 mps 744 mmHg 88%
    02:00 +27°C° 0 mm 2 mps 744 mmHg 88%
    03:00 +26°C° 0 mm 2 mps 744 mmHg 90%
    04:00 +26°C° 0 mm 1 mps 744 mmHg 91%
    05:00 +26°C° 0 mm 1 mps 744 mmHg 92%
    06:00 +27°C° 0 mm 1 mps 745 mmHg 89%
    07:00 +27°C° 0 mm 2 mps 745 mmHg 86%
    08:00 +28°C° 0 mm 2 mps 746 mmHg 83%
    09:00 +29°C° 0 mm 2 mps 746 mmHg 79%
    10:00 +30°C° 0 mm 2 mps 746 mmHg 74%
    11:00 +31°C° 0 mm 2 mps 746 mmHg 69%
    12:00 +32°C° 0 mm 2 mps 746 mmHg 67%
    13:00 +34°C° 0 mm 2 mps 745 mmHg 64%
    14:00 +34°C° 0 mm 2 mps 744 mmHg 61%
    15:00 +34°C° 0 mm 2 mps 743 mmHg 62%
    16:00 +33°C° 0 mm 1 mps 743 mmHg 63%
    17:00 +33°C° 0 mm 1 mps 742 mmHg 64%
    18:00 +32°C° 0 mm 1 mps 742 mmHg 70%
    19:00 +30°C° 0 mm 1 mps 742 mmHg 76%
    20:00 +29°C° 0 mm 1 mps 743 mmHg 81%
    21:00 +28°C° 0 mm 1 mps 743 mmHg 83%
    22:00 +28°C° 0 mm 1 mps 744 mmHg 84%
    23:00 +28°C° 0 mm 1 mps 744 mmHg 86%

    24 January, Thursday

    Time Temperature Precipitation Wind Pressure Humidity
    00:00 +27°C° 0.2 mm 1 mps 744 mmHg 87%
    01:00 +27°C° 0.2 mm 1 mps 744 mmHg 89%
    02:00 +26°C° 0.2 mm 1 mps 743 mmHg 90%
    03:00 +26°C° 0.6 mm 1 mps 743 mmHg 92%
    04:00 +26°C° 0.6 mm 1 mps 743 mmHg 94%
    05:00 +26°C° 0.6 mm 1 mps 743 mmHg 95%
    06:00 +26°C° 0 mm 1 mps 744 mmHg 93%
    07:00 +27°C° 0 mm 1 mps 745 mmHg 91%
    08:00 +27°C° 0 mm 1 mps 745 mmHg 89%
    09:00 +29°C° 0 mm 2 mps 745 mmHg 80%
    10:00 +31°C° 0 mm 2 mps 746 mmHg 72%
    11:00 +34°C° 0 mm 2 mps 746 mmHg 64%
    12:00 +35°C° 0.4 mm 2 mps 745 mmHg 60%
    13:00 +35°C° 0.4 mm 2 mps 744 mmHg 57%
    14:00 +36°C° 0.4 mm 3 mps 743 mmHg 54%
    15:00 +36°C° 0 mm 3 mps 742 mmHg 56%
    16:00 +35°C° 0 mm 3 mps 741 mmHg 58%
    17:00 +35°C° 0 mm 3 mps 741 mmHg 60%
    18:00 +32°C° 0 mm 2 mps 741 mmHg 68%
    19:00 +30°C° 0 mm 2 mps 741 mmHg 75%
    20:00 +29°C° 0 mm 1 mps 742 mmHg 83%
    21:00 +28°C° 0 mm 1 mps 742 mmHg 85%
    22:00 +28°C° 0 mm 1 mps 743 mmHg 87%
    23:00 +27°C° 0 mm 1 mps 743 mmHg 89%

    25 January, Friday

    Time Temperature Precipitation Wind Pressure Humidity
    00:00 +27°C° 0 mm 1 mps 743 mmHg 90%
    01:00 +26°C° 0 mm 1 mps 743 mmHg 90%
    02:00 +26°C° 0 mm 1 mps 742 mmHg 91%
    03:00 +26°C° 0 mm 1 mps 742 mmHg 91%
    04:00 +25°C° 0 mm 1 mps 742 mmHg 91%
    05:00 +25°C° 0 mm 1 mps 742 mmHg 91%
    06:00 +26°C° 0 mm 1 mps 743 mmHg 87%
    07:00 +27°C° 0 mm 2 mps 744 mmHg 83%
    08:00 +28°C° 0 mm 2 mps 744 mmHg 78%
    09:00 +30°C° 0 mm 2 mps 744 mmHg 72%
    10:00 +33°C° 0 mm 3 mps 744 mmHg 66%
    11:00 +35°C° 0 mm 3 mps 744 mmHg 59%
    12:00 +36°C° 0 mm 3 mps 743 mmHg 57%
    13:00 +36°C° 0 mm 3 mps 742 mmHg 54%
    14:00 +37°C° 0 mm 3 mps 742 mmHg 52%
    15:00 +37°C° 0 mm 3 mps 741 mmHg 54%
    16:00 +36°C° 0 mm 3 mps 740 mmHg 57%
    17:00 +36°C° 0 mm 3 mps 739 mmHg 59%
    18:00 +34°C° 0 mm 3 mps 740 mmHg 66%
    19:00 +31°C° 0 mm 3 mps 740 mmHg 73%
    20:00 +29°C° 0 mm 2 mps 741 mmHg 80%
    21:00 +29°C° 0 mm 2 mps 741 mmHg 82%
    22:00 +28°C° 0 mm 2 mps 742 mmHg 84%
    23:00 +28°C° 0 mm 2 mps 743 mmHg 86%
    Show more